This demonstration page uses our WeatherBlox Daily Observations layout. Learn more.

Left ArrowRight Arrow

41.12389, -100.76542

Hourly Observations for November 9, 2016

Temp ( °F °C ) Dew Point ( °F °C ) Humidity (%) Winds ( mph kmh ) Pressure ( in mb ) Visibility ( mi km ) Precip ( " mm )
12:53 am 00:53 Clear 31 -0.6 28 -2.2 89 89 Calm 30.48 1032 10 16 0.00 0.00
1:53 am 01:53 Clear 37 2.8 34 1.1 89 89 SSE 3 6 30.46 1032 10 16 0.00 0.00
2:53 am 02:53 Clear 34 1.1 32 0 92 92 Calm 30.45 1031 10 16 0.00 0.00
3:53 am 03:53 Clear 30 -1.1 29 -1.7 96 96 Calm 30.44 1031 9 14 0.00 0.00
4:53 am 04:53 Clear 29 -1.7 27 -2.8 92 92 E 5 7 30.44 1031 10 16 0.00 0.00
5:53 am 05:53 Clear with Mist and Fog 28 -2.2 26 -3.3 92 92 Calm 30.45 1031 3 4 0.00 0.00
6:04 am 06:04 Clear with Mist and Fog 28 -2 25 -4 86 86 Calm 30.53 1034 5 8 0.00 0.00
6:08 am 06:08 Clear with Mist and Fog 27 -3 25 -4 93 93 Calm 30.53 1034 2 3 0.00 0.00
6:10 am 06:10 Mostly Cloudy with Mist and Fog 27 -2.8 24 -4.4 89 89 Calm 30.53 1034 1 1 0.00 0.00
6:21 am 06:21 Mostly Clear with Mist and Fog 28 -2 27 -3 93 93 Calm 30.53 1034 2 2 0.00 0.00
6:24 am 06:24 Mostly Clear with Mist and Fog 27 -3 27 -3 100 100 Calm 30.53 1034 4 6 0.00 0.00
6:53 am 06:53 Mostly Clear with Mist and Fog 26 -3.3 24 -4.4 92 92 Calm 30.45 1031 6 10 0.00 0.00
7:06 am 07:06 Partly Cloudy with Mist and Fog 27 -3 25 -4 93 93 Calm 30.53 1034 2 3 0.00 0.00
7:08 am 07:08 Mostly Cloudy with Mist and Fog 25 -4 25 -4 100 100 Calm 30.53 1034 1 2 0.00 0.00
7:14 am 07:14 Mostly Cloudy with Freezing Fog 25 -3.9 24 -4.4 96 96 Calm 30.53 1034 0 0 0.00 0.00
7:53 am 07:53 Mostly Cloudy with Freezing Fog 27 -2.8 26 -3.3 96 96 Calm 30.45 1031 0 0 0.00 0.00
8:07 am 08:07 Partly Cloudy with Mist and Fog 29 -1.7 28 -2.2 96 96 Calm 30.53 1034 1 2 0.00 0.00
8:09 am 08:09 Partly Cloudy with Mist and Fog 29 -1.7 28 -2.2 96 96 Calm 30.53 1034 3 5 0.00 0.00
8:53 am 08:53 Sunny 36 2.2 34 1.1 93 93 Calm 30.42 1030 8 13 0.00 0.00
9:53 am 09:53 Sunny 45 7.2 35 1.7 68 68 Calm 30.40 1029 10 16 0.00 0.00
10:53 am 10:53 Sunny 54 12.2 36 2.2 51 51 S 5 7 30.36 1028 10 16 0.00 0.00
11:53 am 11:53 Sunny 65 18.3 33 0.6 31 31 SW 14 22 30.32 1027 10 16 0.00 0.00
12:53 pm 12:53 Sunny 69 20.6 32 0 25 25 SSW 13 20 30.28 1025 10 16 0.00 0.00
1:53 pm 13:53 Sunny 70 21.1 30 -1.1 23 23 SW 12 19 30.23 1024 10 16 0.00 0.00
2:53 pm 14:53 Sunny 71 21.7 28 -2.2 20 20 SSW 13 20 30.21 1023 10 16 0.00 0.00
3:53 pm 15:53 Sunny 70 21.1 31 -0.6 23 23 S 12 19 30.22 1023 10 16 0.00 0.00
4:53 pm 16:53 Sunny 65 18.3 31 -0.6 28 28 S 8 13 30.22 1023 10 16 0.00 0.00
5:53 pm 17:53 Clear 56 13.3 31 -0.6 39 39 SSE 8 13 30.24 1024 10 16 0.00 0.00
6:53 pm 18:53 Clear 53 11.7 29 -1.7 40 40 SE 7 11 30.25 1024 10 16 0.00 0.00
7:53 pm 19:53 Clear 53 11.7 28 -2.2 38 38 SSE 10 17 30.24 1024 10 16 0.00 0.00
8:53 pm 20:53 Clear 51 10.6 27 -2.8 39 39 S 10 17 30.23 1024 10 16 0.00 0.00
9:53 pm 21:53 Clear 48 8.9 26 -3.3 42 42 S 12 19 30.21 1023 10 16 0.00 0.00
10:53 pm 22:53 Clear 45 7.2 24 -4.4 44 44 VRB 3 6 30.20 1023 10 16 0.00 0.00
11:53 pm 23:53 Clear 44 6.7 23 -5 43 43 W 7 11 30.18 1022 10 16 0.00 0.00

Powered by AerisWeather